Flag for India Weather past 2 weeks in Jaipur, Rajasthan, India

Now
90 °F

Broken clouds.


Feels Like: 98 °F
Forecast: 82 / 96 °F
Wind: 7 mph from East

Location: Jaipur / Sanganer

Current Time: Jul 25, 2014 at 3:24:09 PM

Latest Report: Jul 25, 2014 at 2:00 PM


Visibility: 2 mi

Pressure: 29.62 "Hg

Humidity: 59%

Dew point: 73 °F

Location of JaipurLocation

Historic Weather in Jaipur — Graph

°F

Jaipur temperature yesterday

Maximum temperature yesterday: 88 °F (at 3:00 PM)
Minimum temperature yesterday: 79 °F (at 5:00 AM)
Average temperature yesterday: 83 °F

Past Weeks' High & Low Weather Summary

 TemperatureHumidityPressure
High108 °F (Jul 11, 4:00 PM)100% (Jul 17, 3:00 AM)29.65 "Hg (Jul 17, 3:00 AM)
Low75 °F (Jul 21, 1:00 AM)19% (Jul 10, 3:00 PM)29.42 "Hg (Jul 15, 6:00 PM)
Average89 °F61%29.53 "Hg
* Reported Jul 10 2:00 PM — Jul 25 2:00 PM, Jaipur, Weather by CustomWeather, © 2014

Note: Actual official high and low records may vary slightly from our data, if they occured in-between our weather recording intervals... More about our weather records

Advertising

Jaipur weather history for previous 24 hours

 ConditionsComfort  
Time TempWeatherWind HumidityBarometerVisibility
2:00 PM
Jul 25
90 °FBroken clouds.7 mph59%29.62 "Hg2 mi
1:00 PM88 °FBroken clouds.7 mph62%29.62 "Hg2 mi
12:00 PM86 °FBroken clouds.8 mph66%29.62 "Hg2 mi
11:00 AM86 °FScattered clouds.8 mph66%29.65 "Hg2 mi
10:00 AM86 °FScattered clouds.9 mph66%29.65 "Hg2 mi
9:00 AM82 °FScattered clouds.10 mph74%29.62 "Hg2 mi
8:00 AM81 °FScattered clouds.9 mph79%29.62 "Hg2 mi
7:00 AM79 °FScattered clouds.8 mph84%29.59 "Hg2 mi
6:00 AM79 °FPartly cloudy.6 mph84%29.59 "Hg2 mi
5:00 AM79 °FPartly cloudy.5 mph84%29.59 "Hg2 mi
1:00 AM81 °FPartly cloudy.6 mph79%29.59 "Hg2 mi
12:00 AM79 °FPartly cloudy.6 mph89%29.59 "Hg2 mi
11:00 PM
Jul 24
81 °FPartly cloudy.6 mph84%29.59 "Hg2 mi
10:00 PM81 °FPartly cloudy.7 mph84%29.59 "Hg2 mi
9:00 PM81 °FPartly cloudy.8 mph84%29.56 "Hg2 mi
8:00 PM82 °FPartly cloudy.12 mph74%29.56 "Hg2 mi
7:00 PM82 °FBroken clouds.12 mph74%29.53 "Hg2 mi
5:00 PM86 °FBroken clouds.13 mph62%29.50 "Hg2 mi
4:00 PM88 °FBroken clouds.8 mph59%29.50 "Hg2 mi
3:00 PM88 °FBroken clouds.10 mph59%29.53 "Hg2 mi
Weather by CustomWeather, © 2014

See weather overviewHow to use our weather pages